Powrót do katalogu

STARLINK-33679

AktywnyŁącznośćVLEO
NORAD 63460·PAYLOAD·🇺🇸 United States

Wystrzelony Apr 6, 2025 z Cape Canaveral Space Force Station

Loading…

Następne Przeloty (najbliższe 24 godziny)

TLE

ŚwieżeSource: CelesTrak SupGP

Epoka: Sep 15, 2026, 03:44 UTC

1 63460C 25070A   26258.15604167 -.00019609  00000+0 -71023-3 0  2586
2 63460  42.9999 270.1133 0001337 267.5984 306.4988 15.27588275    14

Śledź STARLINK-33679 w czasie rzeczywistym z AllMySat

Download on the App Store